IOD-1 GEMS

Last updated on April 4, 2021, 12:02 a.m. UTC

1 44385U 98067QK  21093.50661553  .29638396  12563-4  67402-3 0  9999
2 44385  51.6134 288.8339 0010480 272.4104  88.0595 16.45626205100081

Satellite is not in orbit.